KEPLER-5 (AMIDALA) (46498 NORAD) Tracking and Keplerian Element Data

This shows tracking and keplerian element data for the satellite.

Feedback or suggestion? Click here.




ElementValue
Catalog46498
NameKEPLER-5 (AMIDALA)
Epoch Orbit964
Epoch Day336.88771909
Epoch Year2020
RAAN269.6886
Inclination97.6746
Eccentricity0.0014371
Argument of Perigee42.3551
Mean Anonmoly317.8784
Mean Motion15.02385766
Decay Rate1.886E-05
L11 46498U 20068N 20336.88771909 .00001886 00000-0 14681-3 0 9996
L22 46498 97.6746 269.6886 0014371 42.3551 317.8784 15.02385766 9643

Live tracking and technical data element details for KEPLER-5 (AMIDALA) (NORAD 46498). KEPLER-5 (AMIDALA) can be tracked NOW for your location showing map with azimuth and elevation plus other details from your city location.

Track the satellite on the map from your city or location and see movement details for azimuth, elevation, latitude, longitude, range, height, and movement on the map or in text.







IsCatalogInMostPopularTable: catalog: 46498, numindb: 17
Update: records affected: 1



GetName: 46498 KEPLER-5 (AMIDALA)

Hit Count: updated at: Thu, 03 Dec 2020 06:52:56 GMT